Location: ?
(35.3544°N, 139.4507°E)
Time: 11:53:12
(UTC+00:00)

Cosmos 372 Rocket - Pass Details

Date: 03 August 2024
Orbit: 735 x 764 km, 74.1° (Epoch: 11 September)

Event Time Altitude Azimuth Distance (km) Brightness Sun altitude
Rises 16:49:58 0° 343° (NNW) 3,173 7.7 -30.0°
Reaches altitude 10° 16:52:20 10° 344° (NNW) 2,248 6.9 -29.8°
Enters shadow 16:56:15 54° 353° (N) 895 4.4 -29.3°
